[[{"header":{"parameterUnit":"m.s-1","parameterCategory":1,"la1":30.2991,"la2":30.254,"lo1":-89.0895,"lo2":-89.0444,"dy":0.0017,"dx":0.0017,"nx":28,"ny":28,"refTime":"2025-08-17T21:00:00:Z","depth":0,"parameterNumber":2,"parameterNumberName":"U-component_of_WINDS"},"data":[0,0,0,0,0,0,0,0,0,0,0,0,0,0,0,0,0,0,0,0,0,0,0,0,0,0,0,0,0,0,0,0,0,0,0,0,0,0,0,0,0,0,0,0,0,0,0,0,0,0,0,0,0,0,0,0,0,0,-2.5134,-2.5133,0,-2.5087,-2.5087,-2.5086,-2.4963,-2.4961,-2.4958,-2.4955,-2.4912,-2.4913,-2.4915,0,0,0,0,0,0,0,0,0,0,0,0,0,-2.5119,-2.512,-2.5134,-2.5133,-2.5132,-2.5088,-2.5087,-2.5086,-2.4964,-2.496,-2.4957,-2.4954,-2.4912,-2.4913,-2.4915,0,0,0,0,0,0,0,0,0,0,0,0,0,-2.5105,-2.512,-2.5134,-2.5066,-2.5059,-2.5088,-2.5087,-2.5086,-2.4964,-2.496,-2.4956,-2.4953,-2.4911,-2.4913,-2.4915,-2.5007,0,0,-2.4921,-2.4922,0,0,0,0,0,0,0,0,-2.5106,-2.5105,-2.5076,-2.507,-2.5063,-2.5027,-2.5066,-2.506,-2.4965,-2.5001,-2.4955,-2.4951,-2.4954,-2.4952,-2.4952,-2.5005,-2.5003,-2.4921,-2.4922,-2.4923,-2.4924,0,0,0,0,0,0,0,-2.5107,-2.5107,-2.5115,-2.5076,-2.5068,-2.5039,-2.5032,-2.5064,-2.5,-2.4997,-2.4988,-2.4984,-2.4949,-2.4951,-2.495,-2.5002,-2.4921,-2.4923,-2.4924,-2.4925,-2.5129,-2.5133,0,0,0,0,0,0,-2.5117,-2.5108,-2.5117,-2.5114,-2.5075,-2.5042,-2.5035,-2.5043,-2.4999,-2.4989,-2.4988,-2.4979,-2.4949,-2.4948,-2.4948,-2.5053,-2.4923,-2.4925,-2.4926,-2.5124,-2.5129,-2.5134,0,0,0,0,0,0,-2.5117,-2.5119,-2.5119,-2.5109,-2.5106,-2.5047,-2.5056,-2.5044,-2.5045,-2.4992,-2.498,-2.5,-2.4946,-2.4945,-2.4993,-2.505,-2.4926,-2.4928,-2.5119,-2.5126,-2.5132,-2.5265,0,0,0,0,0,0,-2.5117,-2.512,-2.5153,-2.511,-2.5107,-2.5164,-2.506,-2.5046,-2.5048,-2.5036,-2.5001,-2.4991,-2.4943,-2.4991,-2.4995,-2.5051,-2.4929,-2.5114,-2.5122,-2.513,-2.5255,-2.5275,-2.5292,0,0,0,0,0,-2.5117,-2.5193,-2.5156,-2.5157,-2.5148,-2.5167,-2.5166,-2.5107,-2.5053,-2.5087,-2.5053,-2.4992,-2.5043,-2.4997,-2.5,-2.5058,-2.511,-2.512,-2.5129,-2.5247,-2.5271,-2.5291,0,0,0,0,0,0,-2.5246,-2.5186,-2.5144,-2.5208,-2.5193,-2.5146,-2.5187,-2.5134,-2.5136,-2.5125,-2.5053,-2.5046,-2.5104,-2.5085,-2.5034,-2.5144,-2.5067,-2.5077,-2.5155,-2.5177,-2.5195,-2.5199,-2.4931,0,0,0,0,0,-2.5281,-2.5301,-2.5248,-2.531,-2.5304,-2.5248,-2.5254,-2.521,-2.5192,-2.5186,-2.5155,-2.5142,-2.5155,-2.5165,-2.5173,-2.5251,-2.5243,-2.5292,-2.5311,-2.5326,-2.5337,-2.5377,-2.5399,-2.5165,-2.5165,-2.5165,0,0,-2.5355,-2.5325,-2.5342,-2.5335,-2.5318,-2.5341,-2.5243,-2.5271,-2.5288,-2.519,-2.5233,-2.5211,-2.5191,-2.5255,-2.5281,-2.5241,-2.5399,-2.5338,-2.5351,-2.5353,-2.539,-2.5412,-2.5432,-2.5172,-2.5171,-2.517,0,0,-2.5502,-2.5481,-2.553,-2.5515,-2.5491,-2.5453,-2.5465,-2.5426,-2.5407,-2.5448,-2.5376,-2.5395,-2.5418,-2.5407,-2.5405,-2.5548,-2.5493,-2.5553,-2.565,-2.569,-2.5709,-2.5725,-2.5777,-2.5797,-2.5564,-2.5564,-2.5564,0,-2.5598,-2.5628,-2.5563,-2.5596,-2.5595,-2.5506,-2.5556,-2.5546,-2.5527,-2.5529,-2.5484,-2.5511,-2.5492,-2.5552,-2.5587,-2.5587,-2.56,-2.5557,-2.5711,-2.5727,-2.5741,-2.579,-2.581,-2.5572,-2.5571,-2.557,-2.5569,0,-2.5747,-2.577,-2.5813,-2.5795,-2.5799,-2.5841,-2.5783,-2.5795,-2.5751,-2.5718,-2.5762,-2.5736,-2.5738,-2.5749,-2.5706,-2.5803,-2.5779,-2.5724,-2.5644,-2.5772,-2.5817,-2.5835,-2.5582,-2.558,-2.5577,-2.5575,0,0,-2.5975,-2.592,-2.5937,-2.5928,-2.5895,-2.5912,-2.595,-2.5951,-2.5963,-2.5953,-2.5984,-2.6006,-2.5955,-2.5952,-2.5908,-2.5943,-2.606,-2.5883,-2.5882,-2.5918,-2.6167,-2.6209,-2.6232,-2.6023,-2.6026,-2.6029,-2.6169,0,-2.6114,-2.6174,-2.6117,-2.6189,-2.621,-2.6126,-2.6159,-2.6144,-2.6114,-2.6128,-2.6095,-2.6112,-2.6042,-2.6041,-2.6072,-2.6039,-2.6109,-2.6028,-2.6053,-2.6054,-2.6061,-2.6255,-2.63,-2.6434,-2.6186,-2.6189,-2.6191,0,-2.6284,-2.6281,-2.6356,-2.6318,-2.6325,-2.6356,-2.6352,-2.6366,-2.6347,-2.6323,-2.6321,-2.6266,-2.6302,-2.6224,-2.6274,-2.622,-2.6227,-2.6212,-2.6216,-2.6217,-2.6131,-2.6263,-2.6474,-2.6495,-2.6218,-2.6215,-2.6213,0,-2.6444,-2.6458,-2.6505,-2.65,-2.6457,-2.6481,-2.6464,-2.6441,-2.6445,-2.6443,-2.6445,-2.6448,-2.6449,-2.6453,-2.6401,-2.6349,-2.6458,-2.6376,-2.6441,-2.6442,-2.6468,-2.6468,-2.6686,-2.6471,-2.6471,-2.6471,-2.647,0,-2.6606,-2.6656,-2.6576,-2.6605,-2.6658,-2.6591,-2.6646,-2.6621,-2.6601,-2.6625,-2.6553,-2.6577,-2.6506,-2.6523,-2.6483,-2.6531,-2.6532,-2.6515,-2.6504,-2.6522,-2.6525,-2.6526,-2.6516,-2.6476,-2.6475,-2.6474,-2.6473,0,-2.6794,-2.6742,-2.6787,-2.6743,-2.6733,-2.6774,-2.6737,-2.6762,-2.6727,-2.6758,-2.6762,-2.6708,-2.6724,-2.6673,-2.6681,-2.6654,-2.6725,-2.6698,-2.6731,-2.6723,-2.6792,-2.6787,-2.7019,-2.7047,-2.6815,-2.6817,-2.6819,0,-2.6901,-2.6937,-2.6896,-2.6906,-2.6893,-2.691,-2.6914,-2.685,-2.6857,-2.6839,-2.6867,-2.6877,-2.6882,-2.6912,-2.6875,-2.6881,-2.6855,-2.6936,-2.6855,-2.6873,-2.6857,-2.6856,-2.686,-2.6953,-2.6956,-2.6958,-2.696,0,-2.7098,-2.707,-2.7078,-2.7077,-2.7084,-2.708,-2.7072,-2.7085,-2.7016,-2.7029,-2.7044,-2.7047,-2.7055,-2.7067,-2.7065,-2.705,-2.6995,-2.6986,-2.7001,-2.7021,-2.7039,-2.7031,-2.6778,-2.6981,-2.6979,-2.6977,-2.6976,-2.6975,-2.7249,-2.7277,-2.7252,-2.7264,-2.7251,-2.7245,-2.7267,-2.7234,-2.7245,-2.7246,-2.7208,-2.7232,-2.7212,-2.7204,-2.7194,-2.7212,-2.7175,-2.7198,-2.7203,-2.721,-2.7222,-2.7035,-2.7212,-2.7211,-2.7211,-2.721,-2.721,0,-2.7442,-2.7422,-2.7433,-2.7423,-2.7433,-2.7378,-2.7366,-2.7378,-2.7399,-2.7385,-2.7391,-2.741,-2.742,-2.7384,-2.739,-2.7412,-2.7387,-2.7416,-2.7414,-2.7412,-2.7255,-2.7241,-2.7436,-2.7436,-2.7436,-2.7436,-2.7436,-2.7436,-2.7544,-2.7589,-2.7559,-2.7597,-2.7577,-2.7598,-2.7596,-2.7591,-2.758,-2.7603,-2.7611,-2.7586,-2.7564,-2.7568,-2.7576,-2.7565,-2.7571,-2.7609,-2.759,-2.7445,-2.7423,-2.7402,-2.7388,-2.7611,-2.7611,-2.7745,-2.7747,-2.7747]},{"header":{"parameterUnit":"m.s-1","parameterCategory":1,"la1":30.2991,"la2":30.254,"lo1":-89.0895,"lo2":-89.0444,"dy":0.0017,"dx":0.0017,"nx":28,"ny":28,"refTime":"2025-08-17T21:00:00:Z","depth":0,"parameterNumber":3,"parameterNumberName":"V-component_of_WINDS"},"data":[0,0,0,0,0,0,0,0,0,0,0,0,0,0,0,0,0,0,0,0,0,0,0,0,0,0,0,0,0,0,0,0,0,0,0,0,0,0,0,0,0,0,0,0,0,0,0,0,0,0,0,0,0,0,0,0,0,0,0.4163,0.4162,0,0.415,0.4149,0.4149,0.4134,0.4134,0.4134,0.4134,0.4118,0.4118,0.4118,0,0,0,0,0,0,0,0,0,0,0,0,0,0.4169,0.4169,0.4163,0.4162,0.4162,0.415,0.4149,0.4149,0.4134,0.4134,0.4134,0.4134,0.4118,0.4118,0.4117,0,0,0,0,0,0,0,0,0,0,0,0,0,0.4162,0.4169,0.4163,0.4153,0.4152,0.415,0.4149,0.4149,0.4134,0.4134,0.4134,0.4133,0.4118,0.4118,0.4117,0.4122,0,0,0.4116,0.4116,0,0,0,0,0,0,0,0,0.4163,0.4162,0.4155,0.4154,0.4153,0.4143,0.4146,0.414,0.4135,0.4141,0.4134,0.4133,0.4126,0.4125,0.4124,0.4121,0.4121,0.4116,0.4116,0.4116,0.4116,0,0,0,0,0,0,0,0.4163,0.4163,0.4157,0.4155,0.4154,0.4148,0.4147,0.4145,0.4136,0.4141,0.4139,0.4138,0.4126,0.4124,0.4123,0.412,0.4116,0.4116,0.4116,0.4116,0.4117,0.4117,0,0,0,0,0,0,0.4166,0.4163,0.4158,0.4157,0.4157,0.4148,0.4147,0.4147,0.4136,0.4134,0.4139,0.4138,0.4125,0.4124,0.4123,0.4125,0.4116,0.4116,0.4116,0.4117,0.4117,0.4117,0,0,0,0,0,0,0.4166,0.4165,0.4158,0.416,0.4158,0.4149,0.4149,0.4147,0.4145,0.4134,0.4132,0.4139,0.4124,0.4123,0.4122,0.4124,0.4116,0.4115,0.4116,0.4117,0.4117,0.4131,0,0,0,0,0,0,0.4166,0.4166,0.4169,0.416,0.4158,0.4159,0.4149,0.4147,0.4145,0.4143,0.4134,0.4132,0.4124,0.4122,0.4121,0.4124,0.4115,0.4116,0.4117,0.4117,0.413,0.4132,0.4133,0,0,0,0,0,0.4167,0.4173,0.4169,0.4168,0.4162,0.4159,0.4158,0.415,0.4145,0.4147,0.4139,0.4132,0.4124,0.4122,0.4121,0.4123,0.4116,0.4116,0.4117,0.4129,0.4131,0.4133,0,0,0,0,0,0,0.4183,0.4172,0.4167,0.4172,0.4167,0.4157,0.4159,0.4153,0.4148,0.4147,0.4136,0.4134,0.4133,0.4128,0.4126,0.4125,0.4119,0.4119,0.4129,0.413,0.4132,0.4133,0.4115,0,0,0,0,0,0.4187,0.4187,0.4177,0.4182,0.4179,0.417,0.4168,0.4162,0.4156,0.4153,0.4146,0.4139,0.4135,0.4132,0.4128,0.4129,0.4125,0.413,0.4131,0.4132,0.4132,0.413,0.4131,0.4119,0.4119,0.4119,0,0,0.4195,0.4189,0.419,0.4185,0.418,0.4178,0.4168,0.4167,0.4165,0.4153,0.4151,0.4145,0.4136,0.4135,0.4135,0.4131,0.4135,0.4133,0.4134,0.4133,0.413,0.4131,0.4132,0.4119,0.4119,0.4119,0,0,0.421,0.4206,0.4208,0.4203,0.4196,0.4189,0.4189,0.418,0.4176,0.4173,0.4163,0.4159,0.4153,0.4146,0.4142,0.415,0.4142,0.4149,0.4156,0.4153,0.4154,0.4155,0.4156,0.4157,0.4149,0.4149,0.4149,0,0.4221,0.4219,0.421,0.4209,0.4206,0.4194,0.4195,0.419,0.4181,0.4179,0.4175,0.4164,0.4158,0.4154,0.4155,0.4153,0.4151,0.415,0.4155,0.4156,0.4156,0.4157,0.4157,0.415,0.415,0.415,0.415,0,0.4232,0.423,0.4233,0.4224,0.4221,0.4221,0.421,0.4208,0.4201,0.4193,0.4189,0.4181,0.4173,0.4171,0.4165,0.4165,0.4163,0.4158,0.4151,0.4158,0.4159,0.4159,0.4151,0.4151,0.415,0.415,0,0,0.4257,0.4242,0.4243,0.4238,0.4227,0.4225,0.4223,0.4216,0.4213,0.4206,0.4203,0.4196,0.4189,0.4185,0.4177,0.4175,0.4178,0.4169,0.4168,0.4169,0.4175,0.4179,0.418,0.4173,0.4173,0.4173,0.4176,0,0.4268,0.4265,0.4256,0.4255,0.4251,0.4239,0.4236,0.4229,0.4221,0.4216,0.4207,0.4201,0.4195,0.4191,0.4188,0.4179,0.4179,0.4178,0.4168,0.4168,0.417,0.418,0.4185,0.4188,0.4176,0.4176,0.4176,0,0.4282,0.4275,0.4274,0.4261,0.4259,0.4258,0.4248,0.4244,0.4234,0.4228,0.4221,0.4212,0.4207,0.4201,0.4192,0.4191,0.4186,0.418,0.418,0.4178,0.4172,0.4178,0.4189,0.4189,0.4176,0.4176,0.4176,0,0.4298,0.4289,0.4286,0.4283,0.4268,0.4266,0.426,0.425,0.4245,0.4236,0.4232,0.4223,0.4218,0.421,0.4198,0.4195,0.4189,0.4183,0.4183,0.4183,0.4182,0.4182,0.4191,0.418,0.418,0.418,0.418,0,0.4311,0.431,0.4293,0.4291,0.4289,0.4277,0.4274,0.4266,0.4257,0.4251,0.424,0.4235,0.422,0.4212,0.4203,0.4195,0.4193,0.4187,0.4184,0.4188,0.4188,0.4184,0.4183,0.418,0.418,0.418,0.418,0,0.4328,0.4318,0.4313,0.4299,0.4296,0.4294,0.4281,0.4278,0.4269,0.4262,0.426,0.4245,0.4235,0.4222,0.4209,0.4202,0.4196,0.4192,0.4199,0.4198,0.4198,0.4197,0.4204,0.4203,0.4194,0.4194,0.4194,0,0.4337,0.4336,0.4321,0.4317,0.4311,0.4305,0.4299,0.4286,0.4281,0.4267,0.4265,0.4255,0.4246,0.4231,0.4218,0.4207,0.4202,0.4205,0.42,0.4203,0.42,0.42,0.4199,0.4206,0.4206,0.4206,0.4206,0,0.4352,0.4346,0.434,0.433,0.4324,0.4316,0.4307,0.4304,0.4289,0.4283,0.4273,0.4266,0.4251,0.424,0.4227,0.4218,0.4209,0.4208,0.4207,0.421,0.4214,0.421,0.4201,0.4208,0.4208,0.4207,0.4207,0.4207,0.4364,0.4362,0.435,0.4342,0.4334,0.4326,0.4321,0.4311,0.4303,0.429,0.4283,0.4273,0.4259,0.424,0.4232,0.4223,0.4219,0.4218,0.4218,0.4218,0.4218,0.4216,0.422,0.422,0.422,0.422,0.422,0,0.4377,0.4369,0.4362,0.435,0.4343,0.4335,0.4324,0.4318,0.431,0.4299,0.429,0.4277,0.4265,0.4251,0.4238,0.4233,0.4228,0.423,0.423,0.4228,0.4223,0.4224,0.4234,0.4234,0.4234,0.4234,0.4234,0.4234,0.4384,0.4378,0.437,0.4359,0.4351,0.4341,0.4335,0.4326,0.4317,0.4304,0.4294,0.4285,0.4272,0.4257,0.4246,0.4242,0.4237,0.424,0.4234,0.423,0.4228,0.4227,0.4228,0.4239,0.4239,0.424,0.424,0.424]}]]